Погода в Октябрьском

Россия / Амурская область     53°00′47″N   128°38′56″E
темп.,
°C
ветер,
м/с
пор.,
м/с
влажн.,
%
обл.,
%
осадки,
мм/ч
давл.,
гПа
погр.,
м
19 января, вт
вт1900:00−34с12850 0.0 102419
03:00−35ссз11850 0.0 102419
06:00−36ссз00880 0.0 102519
09:00−36ю01900 0.0 102619
12:00−30ююв12770 0.0 1026275
15:00−30ююв22851 0.0 1025298
18:00−34вюв11950 0.0 102620
21:00−34в12975 0.0 102722
20 января, ср
ср2000:00−34в229717 0.0 102640
03:00−33в249650 0.0 1026129
06:00−33в2796100 0.0 1025200
09:00−32в3696100 0.3 1025203
12:00−29в3694100 0.4 1023268
15:00−28в2595100 0.9 1021302
18:00−27св1398100 0.4 1020160
21:00−27с2398100 0.9 1020162
21 января, чт
чт2100:00−29с2496100 0.1 1020162
03:00−32ссз259692 0.1 1020110
06:00−31сз239595 0.0 1021103
09:00−32сз239697 0.0 102382
12:00−27сз238147 0.0 1023305
15:00−26сз238323 0.0 1023376
18:00−31сз12930 0.0 102519
21:00−32ссз11940 0.0 102519
22 января, пт
пт2200:00−32сз119312 0.0 102619
03:00−33с119429 0.0 102719
06:00−33с11930 0.0 102719
09:00−33с11900 0.0 102919
12:00−27зсз11740 0.0 1029305
15:00−26з11730 0.0 1029410
18:00−32юз01930 0.0 103019
21:00−33вюв11920 0.0 103119
23 января, сб
сб2300:00−33юв11930 0.0 103119
03:00−34вюв12952 0.0 103120
06:00−34вюв239754 0.0 103082
09:00−33в359578 0.0 1030160
12:00−30вюв2692100 0.1 1029265
15:00−28в2492100 0.1 1027291
18:00−30всв2397100 0.1 102780
21:00−28св1296100 0.1 102858